Simultaneous Nadir Overpasses (SNOs) Predictions

Prediction of SNOs between GOES-16 and AQUA Satellite Orbit:

Table of predicted SNOs for the next 14.0 days since TLE Epoch: 11/10/2018
Index Date Time (GOES-16) GOES-16 Lat,Lon AQUA Lat,Lon Distance(km) Time Diff (sec)
1 11/11/2018 18:35:17 -0.01, -75.21 0.11, -74.63 65.85 80
2 11/13/2018 18:23:05 -0.01, -75.22 0.77, -71.67 403.86 80
3 11/14/2018 06:44:19 0.01, -75.22 0.36, -76.82 181.89 80
4 11/16/2018 06:29:27 0.00, -75.24 -0.29, -73.87 156.85 80
5 11/16/2018 18:50:51 -0.00, -75.25 -0.78, -79.06 432.77 80
6 11/18/2018 06:17:16 0.00, -75.27 -0.95, -70.91 496.23 80
7 11/18/2018 18:38:38 -0.00, -75.27 -0.18, -76.09 93.17 80
8 11/20/2018 18:29:06 -0.00, -75.31 0.49, -73.14 246.97 80
9 11/21/2018 06:50:21 0.00, -75.32 0.65, -78.29 338.37 80
10 11/23/2018 06:38:09 0.01, -75.35 -0.01, -75.33 2.65 80




NCC Satellite Simultaneous Nadir Overpasses (SNOs) Prediction Service
